Eastsound, WA

9:03 AM PDT on March 26, 2017 (GMT -0700)
Orcas Island

Weather History for KORS - January, 2013

Change the Weather History Date:

Saturday, January 19, 2013

  Actual Average (KFHR) Record (KFHR)
Temperature  
Mean Temperature 37 °F -  
Max Temperature 39 °F 44 °F 57 °F (2005)
Min Temperature 35 °F 36 °F 23 °F (2012)
Degree Days  
Heating Degree Days 28    
Moisture  
Dew Point 36 °F    
Average Humidity 93    
Maximum Humidity 100    
Minimum Humidity 87    
Precipitation  
Precipitation 0.00 in - - ()
Sea Level Pressure  
Sea Level Pressure 30.36 in    
Wind  
Wind Speed 4 mph (North)    
Max Wind Speed 9 mph    
Max Gust Speed -    
Visibility 9 miles    
Events      
Averages and records for this station are not official NWS values.
T = Trace of Precipitation, MM = Missing Value Source: NWS Daily Summary

Daily Weather History Graph

Daily Weather History Graph

Search for Another Location

Airport or City:

Trip Planner

Search our weather history database for the weather conditions in past years. The results will help you decide how hot, cold, wet, or windy it might be!

Date:

Astronomy

Jan. 19, 2013 Rise Set
Actual Time 7:55 AM PST 4:49 PM PST
Civil Twilight 7:20 AM PST 5:25 PM PST
Nautical Twilight 6:41 AM PST 6:03 PM PST
Astronomical Twilight 6:04 AM PST 6:41 PM PST
Moon 11:24 AM PST (1/19) 1:28 AM PST (1/19)
Length of Visible Light 10h 04m
Length of Day
8h 54m
First Quarter, 58% of the Moon is Illuminated
Jan 19
First Quarter
Jan 26
Full
Feb 3
Last Quarter
Feb 9
New
Feb 17
First Quarter

Hourly Weather History & Observations

Time (PST) Temp. Windchill Dew Point Humidity Pressure Visibility Wind Dir Wind Speed Gust Speed Precip Events Conditions
12:15 AM 35.6 °F - 35.6 °F 100% 30.34 in 3.0 mi Calm Calm - N/A   Overcast
12:35 AM 37.4 °F - 37.4 °F 100% 30.34 in 3.0 mi Calm Calm - N/A   Overcast
12:55 AM 37.4 °F - 35.6 °F 93% 30.34 in 5.0 mi Calm Calm - N/A   Overcast
1:15 AM 37.4 °F - 35.6 °F 93% 30.34 in 5.0 mi North - - N/A   Overcast
1:35 AM 37.4 °F 34.9 °F 35.6 °F 93% 30.35 in 5.0 mi NE 3.5 mph - N/A   Overcast
1:55 AM 37.4 °F - 35.6 °F 93% 30.34 in 5.0 mi North - - N/A   Overcast
2:15 AM 37.4 °F 33.8 °F 35.6 °F 93% 30.35 in 6.0 mi North 4.6 mph - N/A   Overcast
2:35 AM 37.4 °F - 35.6 °F 93% 30.35 in 7.0 mi Calm Calm - N/A   Overcast
3:15 AM 37.4 °F - 35.6 °F 93% 30.36 in 6.0 mi Calm Calm - N/A   Overcast
3:35 AM 37.4 °F 34.9 °F 35.6 °F 93% 30.35 in 5.0 mi NE 3.5 mph - N/A   Overcast
3:55 AM 37.4 °F 34.9 °F 35.6 °F 93% 30.36 in 5.0 mi NNE 3.5 mph - N/A   Overcast
5:15 AM 35.6 °F - 35.6 °F 100% 30.35 in 5.0 mi Calm Calm - N/A   Overcast
5:55 AM 37.4 °F 32.1 °F 35.6 °F 93% 30.35 in 5.0 mi North 6.9 mph - N/A   Overcast
6:15 AM 37.4 °F 33.8 °F 35.6 °F 93% 30.36 in 8.0 mi North 4.6 mph - N/A   Overcast
6:35 AM 37.4 °F 34.9 °F 35.6 °F 93% 30.36 in 10.0 mi NNE 3.5 mph - N/A   Overcast
7:35 AM 37.4 °F 32.1 °F 35.6 °F 93% 30.36 in 9.0 mi North 6.9 mph - N/A   Overcast
7:55 AM 35.6 °F 29.2 °F 35.6 °F 100% 30.36 in 9.0 mi North 8.1 mph - N/A   Overcast
8:15 AM 35.6 °F 30.7 °F 33.8 °F 93% 30.37 in 10.0 mi North 5.8 mph - N/A   Overcast
8:35 AM 35.6 °F 29.2 °F 33.8 °F 93% 30.37 in 5.0 mi North 8.1 mph - N/A   Overcast
9:15 AM 35.6 °F 31.7 °F 33.8 °F 93% 30.38 in 2.5 mi North 4.6 mph - N/A   Overcast
10:15 AM 35.6 °F 30.7 °F 35.6 °F 100% 30.39 in 7.0 mi North 5.8 mph - N/A   Overcast
10:55 AM 37.4 °F 32.8 °F 35.6 °F 93% 30.39 in 10.0 mi North 5.8 mph - N/A   Overcast
11:15 AM 37.4 °F 31.4 °F 35.6 °F 93% 30.38 in 10.0 mi North 8.1 mph - N/A   Overcast
11:35 AM 37.4 °F 32.1 °F 35.6 °F 93% 30.38 in 10.0 mi North 6.9 mph - N/A   Overcast
12:15 PM 37.4 °F 32.1 °F 35.6 °F 93% 30.37 in 10.0 mi North 6.9 mph - N/A   Overcast
12:35 PM 39.2 °F 35.0 °F 35.6 °F 87% 30.37 in 10.0 mi North 5.8 mph - N/A   Overcast
12:55 PM 37.4 °F 32.8 °F 35.6 °F 93% 30.36 in 10.0 mi North 5.8 mph - N/A   Overcast
1:15 PM 39.2 °F 35.0 °F 35.6 °F 87% 30.36 in 10.0 mi North 5.8 mph - N/A   Overcast
1:35 PM 39.2 °F 35.9 °F 35.6 °F 87% 30.36 in 10.0 mi North 4.6 mph - N/A   Overcast
1:55 PM 39.2 °F 34.2 °F 35.6 °F 87% 30.35 in 10.0 mi North 6.9 mph - N/A   Overcast
2:15 PM 39.2 °F 34.2 °F 35.6 °F 87% 30.35 in 10.0 mi North 6.9 mph - N/A   Overcast
2:35 PM 39.2 °F 34.2 °F 35.6 °F 87% 30.35 in 10.0 mi North 6.9 mph - N/A   Mostly Cloudy
2:55 PM 39.2 °F 33.0 °F 35.6 °F 87% 30.35 in 10.0 mi North 9.2 mph - N/A   Overcast
3:15 PM 39.2 °F 33.0 °F 35.6 °F 87% 30.35 in 10.0 mi North 9.2 mph - N/A   Overcast
3:35 PM 39.2 °F 33.0 °F 35.6 °F 87% 30.35 in 10.0 mi North 9.2 mph - N/A   Overcast
3:55 PM 39.2 °F 33.6 °F 35.6 °F 87% 30.35 in 10.0 mi North 8.1 mph - N/A   Overcast
4:15 PM 39.2 °F 34.2 °F 35.6 °F 87% 30.35 in 10.0 mi North 6.9 mph - N/A   Overcast
4:35 PM 39.2 °F 34.2 °F 35.6 °F 87% 30.35 in 10.0 mi North 6.9 mph - N/A   Mostly Cloudy
4:55 PM 39.2 °F 33.6 °F 35.6 °F 87% 30.35 in 10.0 mi North 8.1 mph - N/A   Overcast
5:15 PM 39.2 °F 34.2 °F 37.4 °F 93% 30.35 in 10.0 mi North 6.9 mph - N/A   Overcast
5:35 PM 39.2 °F 35.0 °F 37.4 °F 93% 30.35 in 10.0 mi North 5.8 mph - N/A   Overcast
5:55 PM 39.2 °F 34.2 °F 37.4 °F 93% 30.35 in 10.0 mi North 6.9 mph - N/A   Overcast
6:15 PM 39.2 °F 35.0 °F 37.4 °F 93% 30.35 in 10.0 mi North 5.8 mph - N/A   Overcast
6:35 PM 39.2 °F 35.0 °F 37.4 °F 93% 30.35 in 10.0 mi North 5.8 mph - N/A   Overcast
6:55 PM 39.2 °F 33.6 °F 37.4 °F 93% 30.35 in 10.0 mi North 8.1 mph - N/A   Mostly Cloudy
7:15 PM 39.2 °F 35.0 °F 37.4 °F 93% 30.36 in 10.0 mi North 5.8 mph - N/A   Mostly Cloudy
7:35 PM 39.2 °F 35.0 °F 37.4 °F 93% 30.36 in 10.0 mi North 5.8 mph - N/A   Overcast
7:55 PM 39.2 °F 34.2 °F 37.4 °F 93% 30.36 in 10.0 mi North 6.9 mph - N/A   Overcast
8:15 PM 39.2 °F 34.2 °F 37.4 °F 93% 30.36 in 10.0 mi North 6.9 mph - N/A   Mostly Cloudy
8:35 PM 39.2 °F 35.0 °F 37.4 °F 93% 30.36 in 10.0 mi North 5.8 mph - N/A   Mostly Cloudy
8:55 PM 39.2 °F 35.0 °F 37.4 °F 93% 30.36 in 10.0 mi North 5.8 mph - N/A   Mostly Cloudy
9:15 PM 39.2 °F 34.2 °F 39.2 °F 100% 30.37 in 10.0 mi North 6.9 mph - N/A   Overcast
9:35 PM 39.2 °F 34.2 °F 39.2 °F 100% 30.37 in 10.0 mi North 6.9 mph - N/A   Overcast
9:55 PM 39.2 °F 34.2 °F 37.4 °F 93% 30.37 in 10.0 mi North 6.9 mph - N/A   Overcast
10:15 PM 39.2 °F 35.9 °F 37.4 °F 93% 30.37 in 10.0 mi North 4.6 mph - N/A   Overcast
10:35 PM 39.2 °F 35.9 °F 37.4 °F 93% 30.37 in 10.0 mi North 4.6 mph - N/A   Overcast
11:15 PM 39.2 °F 34.2 °F 37.4 °F 93% 30.37 in 10.0 mi North 6.9 mph - N/A   Mostly Cloudy
11:35 PM 39.2 °F 33.0 °F 39.2 °F 100% 30.38 in 10.0 mi North 9.2 mph - N/A   Mostly Cloudy
11:55 PM 39.2 °F 35.0 °F 39.2 °F 100% 30.37 in 10.0 mi North 5.8 mph - N/A   Scattered Clouds